Location: *
(37.5724°S, 58.0067°E)
Time: 11:40:34
(UTC+00:00)

H-2A ROCKET BODY - Pass Details

Date: 26 September 2020
Orbit: 227 x 15267 km, 28.7° (Epoch: 27 October)

Event Time Altitude Azimuth Distance (km) Brightness Sun altitude
Rises 15:24:55 0° 296° (WNW) 3,145 6.0 -15.8°
Reaches altitude 10° 15:26:25 10° 302° (WNW) 2,625 5.4 -16.1°
Maximum altitude 15:32:29 53° 19° (NNE) 2,263 4.1 -17.3°
Enters shadow 15:48:23 22° 81° (E) 7,373 6.3 -20.3°
